49.8°F
Current conditions from King Hill
Updated every 5 minutes
 
  Monday September 22, 2014

Station Historical Data
Daily Summary for March 22, 2011 Units:  Metric    English   Both
« Previous Day
Next Day »
Daily Weekly Monthly Yearly Custom
  High: Low: Average:
Temperature: 2.4 °C -3.4 °C 0.1 °C
Dew Point: -0.3 °C -9.7 °C -2.8 °C
Humidity: 94% 61% 82%
Wind Speed: 12.9km/h 1.6km/h 5.6km/h
Wind Gust: 27.4km/h - -
Wind- - WNW
Pressure: 1015.8 hPa 1008.7 hPa -
Precipitation: 0 mm    
Historical Graphs
 
 
Tabular Data for March 22, 2011
Time Temperature Dew Point Pressure Wind Wind Speed Wind Gust Humidity Daily Rainfall
00:04 0.6 °C -0.3 °C 1008.7 hPa WSW 3.2 km/h 12.9 km/h 94% 0 mm
00:09 0.5 °C -0.3 °C 1009 hPa WSW 3.2 km/h 9.7 km/h 94% 0 mm
00:14 0.5 °C -0.3 °C 1009 hPa SW 1.6 km/h 9.7 km/h 94% 0 mm
00:19 0.6 °C -0.4 °C 1009 hPa WSW 6.4 km/h 11.3 km/h 93% 0 mm
00:24 0.6 °C -0.4 °C 1009 hPa West 4.8 km/h 11.3 km/h 93% 0 mm
00:29 0.5 °C -0.5 °C 1009 hPa WSW 3.2 km/h 9.7 km/h 93% 0 mm
00:34 0.6 °C -0.3 °C 1009 hPa WSW 4.8 km/h 9.7 km/h 94% 0 mm
00:39 0.5 °C -0.3 °C 1009.4 hPa WSW 1.6 km/h 9.7 km/h 94% 0 mm
00:44 0.5 °C -0.3 °C 1009.4 hPa Calm   6.4 km/h 94% 0 mm
00:49 0.5 °C -0.3 °C 1009.4 hPa WSW 1.6 km/h 4.8 km/h 94% 0 mm
00:54 0.5 °C -0.3 °C 1009.4 hPa WSW 1.6 km/h 4.8 km/h 94% 0 mm
00:59 0.5 °C -0.3 °C 1009.4 hPa Calm   4.8 km/h 94% 0 mm
01:04 0.5 °C -0.3 °C 1009.7 hPa NW 1.6 km/h 6.4 km/h 94% 0 mm
01:09 0.5 °C -0.3 °C 1009.7 hPa WNW 3.2 km/h 6.4 km/h 94% 0 mm
01:14 0.5 °C -0.3 °C 1009.7 hPa WNW 1.6 km/h 4.8 km/h 94% 0 mm
01:19 0.5 °C -0.3 °C 1009.7 hPa Calm   6.4 km/h 94% 0 mm
01:24 0.4 °C -0.4 °C 1009.7 hPa NW 6.4 km/h 16.1 km/h 94% 0 mm
01:29 0.4 °C -0.4 °C 1010 hPa West 6.4 km/h 16.1 km/h 94% 0 mm
01:34 0.4 °C -0.4 °C 1010 hPa Calm   12.9 km/h 94% 0 mm
01:39 0.3 °C -0.5 °C 1010 hPa WNW 8 km/h 12.9 km/h 94% 0 mm
01:44 0.3 °C -0.6 °C 1010 hPa NW 8 km/h 17.7 km/h 94% 0 mm
01:49 0.3 °C -0.6 °C 1010 hPa NW 3.2 km/h 17.7 km/h 94% 0 mm
01:54 0.2 °C -0.8 °C 1010 hPa NW 6.4 km/h 17.7 km/h 93% 0 mm
02:04 0.2 °C -0.8 °C 1010.4 hPa NNW 8 km/h 16.1 km/h 93% 0 mm
02:09 0.1 °C -0.9 °C 1010.4 hPa NW 6.4 km/h 14.5 km/h 93% 0 mm
02:14 0 °C -1 °C 1010.4 hPa NW 9.7 km/h 25.7 km/h 93% 0 mm
02:19 -0.1 °C -1.1 °C 1010.4 hPa WNW 8 km/h 25.7 km/h 93% 0 mm
02:24 -0.2 °C -1.2 °C 1010.4 hPa WNW 11.3 km/h 19.3 km/h 93% 0 mm
02:29 -0.2 °C -1.2 °C 1010.4 hPa NNW 6.4 km/h 19.3 km/h 93% 0 mm
02:34 -0.2 °C -1.2 °C 1010.4 hPa NW 6.4 km/h 16.1 km/h 93% 0 mm
02:39 -0.3 °C -1.3 °C 1010.4 hPa WNW 9.7 km/h 17.7 km/h 93% 0 mm
02:44 -0.3 °C -1.3 °C 1010.4 hPa NW 8 km/h 19.3 km/h 93% 0 mm
02:49 -0.3 °C -1.3 °C 1010.4 hPa NNW 3.2 km/h 19.3 km/h 93% 0 mm
02:54 -0.3 °C -1.3 °C 1010.4 hPa NNW 4.8 km/h 14.5 km/h 93% 0 mm
02:59 -0.4 °C -1.4 °C 1010.4 hPa NNW 1.6 km/h 14.5 km/h 93% 0 mm
03:04 -0.4 °C -1.4 °C 1010.4 hPa WNW 6.4 km/h 14.5 km/h 93% 0 mm
03:09 -0.4 °C -1.4 °C 1010.4 hPa NNW 3.2 km/h 14.5 km/h 93% 0 mm
03:14 -0.5 °C -1.5 °C 1010.4 hPa NNW 8 km/h 14.5 km/h 93% 0 mm
03:19 -0.6 °C -1.6 °C 1010.4 hPa NW 4.8 km/h 14.5 km/h 93% 0 mm
03:24 -0.6 °C -1.6 °C 1010.4 hPa NNW 4.8 km/h 12.9 km/h 93% 0 mm
03:29 -0.6 °C -1.6 °C 1010.4 hPa NNW 3.2 km/h 12.9 km/h 93% 0 mm
03:34 -0.6 °C -1.6 °C 1010.7 hPa NNW 4.8 km/h 11.3 km/h 93% 0 mm
03:39 -0.6 °C -1.6 °C 1010.4 hPa NNW 6.4 km/h 11.3 km/h 93% 0 mm
03:44 -0.6 °C -1.6 °C 1010.4 hPa NNW 6.4 km/h 12.9 km/h 93% 0 mm
03:49 -0.6 °C -1.4 °C 1010.7 hPa NW 6.4 km/h 17.7 km/h 94% 0 mm
03:54 -0.6 °C -1.4 °C 1010.4 hPa NW 6.4 km/h 17.7 km/h 94% 0 mm
03:59 -0.6 °C -1.4 °C 1010.4 hPa NNW 1.6 km/h 16.1 km/h 94% 0 mm
04:04 -0.6 °C -1.4 °C 1010.7 hPa NW 4.8 km/h 11.3 km/h 94% 0 mm
04:09 -0.6 °C -1.4 °C 1010.7 hPa NW 1.6 km/h 8 km/h 94% 0 mm
04:14 -0.6 °C -1.4 °C 1010.7 hPa NW 3.2 km/h 9.7 km/h 94% 0 mm
04:19 -0.6 °C -1.4 °C 1010.7 hPa NNW 6.4 km/h 9.7 km/h 94% 0 mm
04:24 -0.6 °C -1.4 °C 1010.7 hPa NNW 6.4 km/h 11.3 km/h 94% 0 mm
04:29 -0.6 °C -1.4 °C 1010.7 hPa NNW 4.8 km/h 11.3 km/h 94% 0 mm
04:34 -0.6 °C -1.4 °C 1010.7 hPa NNW 4.8 km/h 11.3 km/h 94% 0 mm
04:44 -0.6 °C -1.4 °C 1010.7 hPa NW 1.6 km/h 12.9 km/h 94% 0 mm
04:49 -0.6 °C -1.4 °C 1011.1 hPa NNW 8 km/h 19.3 km/h 94% 0 mm
04:54 -0.6 °C -1.4 °C 1010.7 hPa NW 8 km/h 19.3 km/h 94% 0 mm
04:59 -0.6 °C -1.6 °C 1010.7 hPa NW 8 km/h 17.7 km/h 93% 0 mm
05:04 -0.6 °C -1.6 °C 1010.7 hPa NW 3.2 km/h 17.7 km/h 93% 0 mm
05:09 -0.6 °C -1.6 °C 1011.1 hPa NW 3.2 km/h 9.7 km/h 93% 0 mm
05:14 -0.6 °C -1.6 °C 1011.1 hPa NNW 1.6 km/h 9.7 km/h 93% 0 mm
05:19 -0.6 °C -1.6 °C 1011.1 hPa NW 3.2 km/h 14.5 km/h 93% 0 mm
05:24 -0.6 °C -1.6 °C 1011.1 hPa NW 3.2 km/h 16.1 km/h 93% 0 mm
05:29 -0.6 °C -1.6 °C 1011.1 hPa NW 3.2 km/h 16.1 km/h 93% 0 mm
05:34 -0.6 °C -1.6 °C 1011.4 hPa NNW 4.8 km/h 14.5 km/h 93% 0 mm
05:39 -0.6 °C -1.6 °C 1011.4 hPa NW 4.8 km/h 12.9 km/h 93% 0 mm
05:44 -0.6 °C -1.6 °C 1011.4 hPa NW 3.2 km/h 12.9 km/h 93% 0 mm
05:49 -0.6 °C -1.6 °C 1011.4 hPa NNW 3.2 km/h 11.3 km/h 93% 0 mm
05:54 -0.7 °C -1.7 °C 1011.7 hPa NNW 1.6 km/h 12.9 km/h 93% 0 mm
05:59 -0.6 °C -1.6 °C 1011.7 hPa NNW 6.4 km/h 12.9 km/h 93% 0 mm
06:04 -0.7 °C -1.7 °C 1011.7 hPa NNW 4.8 km/h 12.9 km/h 93% 0 mm
06:09 -0.7 °C -1.7 °C 1011.7 hPa NW 3.2 km/h 11.3 km/h 93% 0 mm
06:14 -0.6 °C -1.6 °C 1011.7 hPa NNW 1.6 km/h 9.7 km/h 93% 0 mm
06:19 -0.6 °C -1.6 °C 1011.7 hPa NNW 6.4 km/h 19.3 km/h 93% 0 mm
06:24 -0.7 °C -1.7 °C 1011.7 hPa NW 3.2 km/h 19.3 km/h 93% 0 mm
06:29 -0.7 °C -1.7 °C 1011.7 hPa NW 3.2 km/h 11.3 km/h 93% 0 mm
06:34 -0.7 °C -1.7 °C 1012.1 hPa NNW 6.4 km/h 9.7 km/h 93% 0 mm
06:39 -0.7 °C -1.7 °C 1012.1 hPa North 3.2 km/h 12.9 km/h 93% 0 mm
06:44 -0.7 °C -1.7 °C 1012.1 hPa North 4.8 km/h 19.3 km/h 93% 0 mm
06:49 -0.7 °C -1.7 °C 1012.1 hPa NNW 6.4 km/h 19.3 km/h 93% 0 mm
06:54 -0.7 °C -1.8 °C 1012.1 hPa NNW 1.6 km/h 14.5 km/h 92% 0 mm
06:59 -0.7 °C -1.8 °C 1012.4 hPa NNW 4.8 km/h 14.5 km/h 92% 0 mm
07:04 -0.7 °C -1.8 °C 1012.4 hPa NNW 4.8 km/h 12.9 km/h 92% 0 mm
07:09 -0.7 °C -1.8 °C 1012.4 hPa NNW 3.2 km/h 12.9 km/h 92% 0 mm
07:14 -0.7 °C -1.8 °C 1012.4 hPa NW 6.4 km/h 17.7 km/h 92% 0 mm
07:19 -0.7 °C -1.8 °C 1012.4 hPa NNW 4.8 km/h 17.7 km/h 92% 0 mm
07:24 -0.7 °C -1.8 °C 1012.8 hPa NNW 8 km/h 14.5 km/h 92% 0 mm
07:30 -0.7 °C -1.8 °C 1012.8 hPa NNW 8 km/h 20.9 km/h 92% 0 mm
07:34 -0.7 °C -1.8 °C 1012.8 hPa NNW 6.4 km/h 20.9 km/h 92% 0 mm
07:39 -0.7 °C -1.9 °C 1012.8 hPa NNW 6.4 km/h 16.1 km/h 91% 0 mm
07:44 -0.7 °C -1.9 °C 1012.8 hPa NNW 6.4 km/h 16.1 km/h 91% 0 mm
07:49 -0.7 °C -1.9 °C 1012.8 hPa NNW 3.2 km/h 16.1 km/h 91% 0 mm
07:54 -0.6 °C -1.9 °C 1012.8 hPa NNW 6.4 km/h 14.5 km/h 91% 0 mm
07:59 -0.6 °C -1.9 °C 1012.8 hPa North 3.2 km/h 14.5 km/h 91% 0 mm
08:04 -0.6 °C -1.9 °C 1012.8 hPa NNW 3.2 km/h 11.3 km/h 91% 0 mm
08:09 -0.6 °C -2 °C 1012.8 hPa NNW 1.6 km/h 11.3 km/h 90% 0 mm
08:14 -0.6 °C -2 °C 1012.8 hPa NNW 8 km/h 14.5 km/h 90% 0 mm
08:19 -0.6 °C -2 °C 1012.8 hPa NNW 8 km/h 16.1 km/h 90% 0 mm
08:24 -0.5 °C -1.9 °C 1012.4 hPa NW 6.4 km/h 16.1 km/h 90% 0 mm
08:29 -0.4 °C -1.9 °C 1012.4 hPa NW 4.8 km/h 12.9 km/h 90% 0 mm
08:34 -0.4 °C -1.9 °C 1012.4 hPa NW 8 km/h 12.9 km/h 90% 0 mm
08:39 -0.3 °C -1.9 °C 1012.8 hPa NNW 6.4 km/h 17.7 km/h 89% 0 mm
08:44 -0.3 °C -1.9 °C 1012.8 hPa NW 4.8 km/h 17.7 km/h 89% 0 mm
08:49 -0.3 °C -1.9 °C 1012.8 hPa NNW 4.8 km/h 14.5 km/h 89% 0 mm
08:54 -0.2 °C -1.8 °C 1012.8 hPa North 3.2 km/h 9.7 km/h 89% 0 mm
08:59 -0.1 °C -1.8 °C 1012.8 hPa NNW 3.2 km/h 9.7 km/h 88% 0 mm
09:04 -0.1 °C -2 °C 1013.1 hPa NNW 1.6 km/h 17.7 km/h 87% 0 mm
09:09 -0.2 °C -2.1 °C 1013.1 hPa NNW 8 km/h 17.7 km/h 87% 0 mm
09:14 -0.2 °C -2.1 °C 1013.1 hPa NNW 6.4 km/h 17.7 km/h 87% 0 mm
09:19 -0.2 °C -2.1 °C 1013.1 hPa NNW 4.8 km/h 17.7 km/h 87% 0 mm
09:24 -0.2 °C -2.2 °C 1013.4 hPa NW 4.8 km/h 12.9 km/h 86% 0 mm
09:34 -0.1 °C -2.2 °C 1013.4 hPa NW 4.8 km/h 19.3 km/h 86% 0 mm
09:39 -0.1 °C -2.1 °C 1013.4 hPa NNW 3.2 km/h 12.9 km/h 86% 0 mm
09:44 0 °C -2.2 °C 1013.4 hPa NNW 4.8 km/h 12.9 km/h 85% 0 mm
09:49 0.1 °C -2.3 °C 1013.4 hPa NNW 6.4 km/h 12.9 km/h 84% 0 mm
09:54 0.1 °C -2.1 °C 1013.4 hPa North 1.6 km/h 11.3 km/h 85% 0 mm
09:59 0.2 °C -2.1 °C 1013.4 hPa NNW 1.6 km/h 9.7 km/h 85% 0 mm
10:04 0.2 °C -2 °C 1013.4 hPa NNW 4.8 km/h 8 km/h 85% 0 mm
10:09 0.1 °C -2.1 °C 1013.4 hPa NW 1.6 km/h 12.9 km/h 85% 0 mm
10:14 0.2 °C -2.1 °C 1013.8 hPa NNW 6.4 km/h 12.9 km/h 85% 0 mm
10:19 0.2 °C -2.1 °C 1013.4 hPa NW 6.4 km/h 14.5 km/h 85% 0 mm
10:24 0.2 °C -2 °C 1013.8 hPa NW 6.4 km/h 14.5 km/h 85% 0 mm
10:29 0.3 °C -1.9 °C 1013.8 hPa NNW 6.4 km/h 17.7 km/h 85% 0 mm
10:34 0.4 °C -1.8 °C 1013.8 hPa NNW 4.8 km/h 19.3 km/h 85% 0 mm
10:39 0.6 °C -1.7 °C 1013.8 hPa NW 3.2 km/h 19.3 km/h 85% 0 mm
10:44 0.7 °C -1.7 °C 1013.4 hPa NNW 8 km/h 17.7 km/h 84% 0 mm
10:49 0.7 °C -1.7 °C 1013.8 hPa NNW 1.6 km/h 12.9 km/h 84% 0 mm
10:54 0.7 °C -1.8 °C 1013.4 hPa NW 8 km/h 17.7 km/h 83% 0 mm
10:59 0.5 °C -2.1 °C 1013.8 hPa NNW 6.4 km/h 19.3 km/h 83% 0 mm
11:04 0.6 °C -2 °C 1013.4 hPa NW 8 km/h 19.3 km/h 83% 0 mm
11:09 0.5 °C -2.1 °C 1013.8 hPa NNW 6.4 km/h 17.7 km/h 83% 0 mm
11:14 0.6 °C -2 °C 1013.8 hPa NNW 8 km/h 17.7 km/h 83% 0 mm
11:19 0.6 °C -1.9 °C 1013.8 hPa NNW 6.4 km/h 16.1 km/h 83% 0 mm
11:24 0.7 °C -2.1 °C 1013.8 hPa NNW 8 km/h 16.1 km/h 82% 0 mm
11:29 0.7 °C -2.2 °C 1013.8 hPa NNW 6.4 km/h 16.1 km/h 81% 0 mm
11:34 0.9 °C -2 °C 1013.4 hPa NW 3.2 km/h 16.1 km/h 81% 0 mm
11:39 0.9 °C -2 °C 1013.4 hPa NW 6.4 km/h 16.1 km/h 81% 0 mm
11:44 1 °C -1.7 °C 1013.4 hPa North 1.6 km/h 14.5 km/h 82% 0 mm
11:49 1 °C -2.1 °C 1013.4 hPa NNW 9.7 km/h 16.1 km/h 80% 0 mm
11:54 1.1 °C -2 °C 1013.4 hPa NNW 4.8 km/h 16.1 km/h 80% 0 mm
11:59 1.1 °C -2.1 °C 1013.4 hPa NW 3.2 km/h 14.5 km/h 79% 0 mm
12:04 1.3 °C -1.8 °C 1013.4 hPa NNW 1.6 km/h 11.3 km/h 80% 0 mm
12:09 1.3 °C -1.9 °C 1013.4 hPa North 4.8 km/h 9.7 km/h 79% 0 mm
12:14 1.3 °C -2.1 °C 1013.4 hPa NNW 4.8 km/h 9.7 km/h 78% 0 mm
12:19 1.4 °C -1.8 °C 1013.4 hPa NNW 3.2 km/h 9.7 km/h 79% 0 mm
12:24 1.4 °C -2 °C 1013.4 hPa NNW 6.4 km/h 12.9 km/h 78% 0 mm
12:29 1.3 °C -2.3 °C 1013.4 hPa NNW 8 km/h 12.9 km/h 77% 0 mm
12:34 1.3 °C -2.4 °C 1013.4 hPa NW 9.7 km/h 17.7 km/h 76% 0 mm
12:39 1.2 °C -2.6 °C 1013.4 hPa NW 9.7 km/h 17.7 km/h 76% 0 mm
12:44 1.1 °C -2.4 °C 1013.4 hPa NNW 6.4 km/h 16.1 km/h 77% 0 mm
12:49 1.1 °C -2.5 °C 1013.4 hPa NW 6.4 km/h 17.7 km/h 77% 0 mm
12:54 1.1 °C -2.4 °C 1013.4 hPa NW 6.4 km/h 17.7 km/h 77% 0 mm
12:59 1.2 °C -2.6 °C 1013.4 hPa NW 12.9 km/h 17.7 km/h 76% 0 mm
13:04 1.2 °C -2.4 °C 1013.4 hPa NW 4.8 km/h 17.7 km/h 77% 0 mm
13:09 1.3 °C -2.4 °C 1013.4 hPa North 4.8 km/h 17.7 km/h 76% 0 mm
13:14 1.7 °C -2.1 °C 1013.4 hPa North 4.8 km/h 17.7 km/h 76% 0 mm
13:19 1.9 °C -2.4 °C 1013.4 hPa NNW 4.8 km/h 17.7 km/h 73% 0 mm
13:24 2.3 °C -2.2 °C 1013.4 hPa North 6.4 km/h 17.7 km/h 72% 0 mm
13:29 2.4 °C -2.1 °C 1013.4 hPa NW 8 km/h 14.5 km/h 72% 0 mm
13:34 1.9 °C -2.6 °C 1013.4 hPa NW 6.4 km/h 19.3 km/h 72% 0 mm
13:39 1.8 °C -2.5 °C 1013.4 hPa NNW 6.4 km/h 19.3 km/h 73% 0 mm
13:44 1.8 °C -2.7 °C 1013.4 hPa NW 8 km/h 17.7 km/h 72% 0 mm
13:49 1.9 °C -2.6 °C 1013.4 hPa NNW 4.8 km/h 16.1 km/h 72% 0 mm
13:54 2 °C -2.7 °C 1013.4 hPa NNW 4.8 km/h 14.5 km/h 71% 0 mm
13:59 2.1 °C -2.7 °C 1013.4 hPa NNW 11.3 km/h 19.3 km/h 71% 0 mm
14:04 2 °C -3.1 °C 1013.4 hPa NW 6.4 km/h 19.3 km/h 69% 0 mm
14:09 2 °C -3.1 °C 1013.4 hPa NNW 6.4 km/h 16.1 km/h 69% 0 mm
14:14 1.9 °C -3.2 °C 1013.4 hPa NNW 3.2 km/h 19.3 km/h 69% 0 mm
14:19 1.8 °C -3.3 °C 1013.4 hPa NNW 6.4 km/h 19.3 km/h 69% 0 mm
14:24 1.7 °C -3.2 °C 1013.1 hPa NNW 8 km/h 22.5 km/h 70% 0 mm
14:29 1.8 °C -3.1 °C 1013.1 hPa NNW 6.4 km/h 22.5 km/h 70% 0 mm
14:34 2.1 °C -3.1 °C 1013.1 hPa NNE 3.2 km/h 20.9 km/h 69% 0 mm
14:39 2.3 °C -2.6 °C 1013.1 hPa NNW 4.8 km/h 14.5 km/h 70% 0 mm
14:44 2.1 °C -3 °C 1013.1 hPa NNW 9.7 km/h 17.7 km/h 69% 0 mm
14:49 1.9 °C -2.9 °C 1013.1 hPa NW 4.8 km/h 17.7 km/h 70% 0 mm
14:54 2 °C -2.7 °C 1013.1 hPa North 3.2 km/h 17.7 km/h 71% 0 mm
14:59 2.1 °C -2.7 °C 1013.1 hPa NNW 3.2 km/h 12.9 km/h 71% 0 mm
15:04 2 °C -2.9 °C 1013.1 hPa NNW 6.4 km/h 17.7 km/h 70% 0 mm
15:09 1.9 °C -3 °C 1013.1 hPa NNW 4.8 km/h 17.7 km/h 70% 0 mm
15:14 1.9 °C -2.6 °C 1013.1 hPa NNW 3.2 km/h 11.3 km/h 72% 0 mm
15:19 1.8 °C -2.9 °C 1013.4 hPa NW 3.2 km/h 12.9 km/h 71% 0 mm
15:24 1.9 °C -2.6 °C 1013.4 hPa NNW 6.4 km/h 12.9 km/h 72% 0 mm
15:29 1.8 °C -2.9 °C 1013.4 hPa NNW 4.8 km/h 16.1 km/h 71% 0 mm
15:34 1.7 °C -2.8 °C 1013.4 hPa NW 1.6 km/h 16.1 km/h 72% 0 mm
15:39 1.7 °C -2.8 °C 1013.4 hPa NW 4.8 km/h 11.3 km/h 72% 0 mm
15:44 1.7 °C -2.8 °C 1013.4 hPa NNW 4.8 km/h 11.3 km/h 72% 0 mm
15:49 1.8 °C -2.7 °C 1013.4 hPa NW 3.2 km/h 11.3 km/h 72% 0 mm
15:54 1.8 °C -2.6 °C 1013.4 hPa NNW 1.6 km/h 8 km/h 73% 0 mm
15:59 1.7 °C -2.8 °C 1013.4 hPa NW 6.4 km/h 14.5 km/h 72% 0 mm
16:04 1.8 °C -2.6 °C 1013.8 hPa NW 8 km/h 14.5 km/h 73% 0 mm
16:09 1.7 °C -2.1 °C 1013.8 hPa NW 4.8 km/h 12.9 km/h 76% 0 mm
16:14 1.7 °C -2.1 °C 1013.8 hPa NW 6.4 km/h 11.3 km/h 76% 0 mm
16:19 1.6 °C -2.1 °C 1013.8 hPa NNW 4.8 km/h 12.9 km/h 77% 0 mm
16:24 1.3 °C -1.9 °C 1013.8 hPa North 4.8 km/h 12.9 km/h 79% 0 mm
16:29 1.3 °C -1.6 °C 1013.8 hPa NNW 6.4 km/h 16.1 km/h 81% 0 mm
16:34 1.3 °C -1.6 °C 1013.8 hPa NNW 4.8 km/h 16.1 km/h 81% 0 mm
16:39 1.2 °C -1.7 °C 1013.8 hPa NNW 4.8 km/h 16.1 km/h 81% 0 mm
16:44 1.2 °C -1.9 °C 1013.8 hPa NNW 8 km/h 20.9 km/h 80% 0 mm
16:49 1 °C -2.2 °C 1013.8 hPa NNW 12.9 km/h 22.5 km/h 79% 0 mm
16:54 0.8 °C -2.3 °C 1013.8 hPa NNW 9.7 km/h 25.7 km/h 80% 0 mm
16:59 0.7 °C -2 °C 1013.8 hPa NNW 8 km/h 25.7 km/h 82% 0 mm
17:04 0.6 °C -1.9 °C 1013.8 hPa NNW 3.2 km/h 14.5 km/h 83% 0 mm
17:09 0.7 °C -1.7 °C 1013.8 hPa NNW 4.8 km/h 11.3 km/h 84% 0 mm
17:14 0.8 °C -1.6 °C 1013.8 hPa NNW 3.2 km/h 12.9 km/h 84% 0 mm
17:19 0.9 °C -1.5 °C 1013.8 hPa NNE 3.2 km/h 12.9 km/h 84% 0 mm
17:24 0.9 °C -1.4 °C 1013.8 hPa NNW 3.2 km/h 11.3 km/h 84% 0 mm
17:29 0.8 °C -1.6 °C 1013.8 hPa NNW 3.2 km/h 11.3 km/h 84% 0 mm
17:35 0.8 °C -1.6 °C 1013.8 hPa Calm   9.7 km/h 84% 0 mm
17:44 0.7 °C -1.8 °C 1013.8 hPa NW 4.8 km/h 12.9 km/h 83% 0 mm
17:49 0.7 °C -1.7 °C 1013.8 hPa NW 4.8 km/h 12.9 km/h 84% 0 mm
17:54 0.7 °C -1.7 °C 1013.8 hPa NW 4.8 km/h 12.9 km/h 84% 0 mm
17:59 0.7 °C -1.7 °C 1013.8 hPa NW 3.2 km/h 12.9 km/h 84% 0 mm
18:04 0.7 °C -1.7 °C 1013.8 hPa NW 4.8 km/h 9.7 km/h 84% 0 mm
18:09 0.7 °C -1.8 °C 1013.8 hPa NNW 3.2 km/h 9.7 km/h 83% 0 mm
18:14 0.8 °C -1.8 °C 1013.8 hPa NW 4.8 km/h 9.7 km/h 83% 0 mm
18:19 1 °C -1.6 °C 1013.8 hPa NW 1.6 km/h 8 km/h 83% 0 mm
18:24 1.3 °C -2.1 °C 1014.1 hPa NW 9.7 km/h 25.7 km/h 78% 0 mm
18:29 1.3 °C -2.8 °C 1013.8 hPa NW 11.3 km/h 25.7 km/h 74% 0 mm
18:34 1.4 °C -2.9 °C 1013.8 hPa NW 9.7 km/h 20.9 km/h 73% 0 mm
18:39 1.4 °C -3.1 °C 1013.8 hPa NNW 8 km/h 19.3 km/h 72% 0 mm
18:44 1.3 °C -3.3 °C 1013.8 hPa North 9.7 km/h 17.7 km/h 71% 0 mm
18:49 1.2 °C -3.5 °C 1013.8 hPa NW 9.7 km/h 19.3 km/h 71% 0 mm
18:54 0.9 °C -2.8 °C 1013.8 hPa NW 12.9 km/h 24.1 km/h 76% 0 mm
18:59 0.8 °C -3.7 °C 1013.8 hPa NW 6.4 km/h 24.1 km/h 72% 0 mm
19:04 0.7 °C -3.7 °C 1013.8 hPa NW 6.4 km/h 20.9 km/h 72% 0 mm
19:09 0.6 °C -3.8 °C 1013.8 hPa NNW 9.7 km/h 20.9 km/h 72% 0 mm
19:14 0.5 °C -3.9 °C 1014.1 hPa NW 6.4 km/h 17.7 km/h 72% 0 mm
19:19 0.4 °C -4.2 °C 1014.1 hPa NNW 8 km/h 19.3 km/h 71% 0 mm
19:24 0.4 °C -4.3 °C 1014.1 hPa NNW 9.7 km/h 24.1 km/h 71% 0 mm
19:29 0.3 °C -4.3 °C 1014.1 hPa NNW 11.3 km/h 24.1 km/h 71% 0 mm
19:39 0.1 °C -4.7 °C 1014.1 hPa NNW 8 km/h 16.1 km/h 70% 0 mm
19:44 0 °C -4.8 °C 1014.4 hPa NNW 9.7 km/h 19.3 km/h 70% 0 mm
19:49 -0.1 °C -4.9 °C 1014.1 hPa NNW 8 km/h 19.3 km/h 70% 0 mm
19:55 -0.2 °C -5 °C 1014.4 hPa NNW 11.3 km/h 24.1 km/h 70% 0 mm
19:59 -0.2 °C -5 °C 1014.4 hPa NNW 6.4 km/h 24.1 km/h 70% 0 mm
20:04 -0.1 °C -5.3 °C 1014.4 hPa NNW 12.9 km/h 27.4 km/h 68% 0 mm
20:09 -0.2 °C -5.3 °C 1014.4 hPa North 4.8 km/h 27.4 km/h 68% 0 mm
20:14 -0.3 °C -5.4 °C 1014.8 hPa NNW 4.8 km/h 22.5 km/h 68% 0 mm
20:19 -0.3 °C -5.7 °C 1014.8 hPa NW 9.7 km/h 20.9 km/h 67% 0 mm
20:24 -0.4 °C -5.6 °C 1014.8 hPa NNW 4.8 km/h 20.9 km/h 68% 0 mm
20:30 -0.4 °C -5.6 °C 1014.8 hPa NNW 4.8 km/h 17.7 km/h 68% 0 mm
20:39 -0.6 °C -5.7 °C 1014.8 hPa NW 9.7 km/h 22.5 km/h 68% 0 mm
20:44 -0.6 °C -5.6 °C 1015.1 hPa NNW 4.8 km/h 22.5 km/h 69% 0 mm
20:49 -0.6 °C -5.8 °C 1015.1 hPa NNW 6.4 km/h 20.9 km/h 68% 0 mm
20:54 -0.7 °C -5.8 °C 1015.1 hPa NNW 8 km/h 20.9 km/h 68% 0 mm
20:59 -0.7 °C -5.5 °C 1015.1 hPa NNW 8 km/h 20.9 km/h 70% 0 mm
21:04 -0.8 °C -5.8 °C 1015.5 hPa NNW 4.8 km/h 20.9 km/h 69% 0 mm
21:09 -0.8 °C -5.9 °C 1015.5 hPa NNW 6.4 km/h 14.5 km/h 68% 0 mm
21:14 -0.8 °C -5.8 °C 1015.5 hPa NNW 6.4 km/h 24.1 km/h 69% 0 mm
21:19 -0.8 °C -5.8 °C 1015.5 hPa NW 6.4 km/h 24.1 km/h 69% 0 mm
21:24 -0.8 °C -5.8 °C 1015.5 hPa North 8 km/h 19.3 km/h 69% 0 mm
21:29 -0.8 °C -5.8 °C 1015.5 hPa NNW 11.3 km/h 20.9 km/h 69% 0 mm
21:34 -0.8 °C -5.6 °C 1015.5 hPa NNW 8 km/h 20.9 km/h 70% 0 mm
21:39 -1 °C -5.4 °C 1015.5 hPa North 4.8 km/h 24.1 km/h 72% 0 mm
21:44 -1.1 °C -5.3 °C 1015.8 hPa NNE 1.6 km/h 24.1 km/h 73% 0 mm
21:49 -1.2 °C -5.4 °C 1015.8 hPa NNE 1.6 km/h 9.7 km/h 73% 0 mm
21:54 -1.3 °C -5.5 °C 1015.8 hPa North 1.6 km/h 8 km/h 73% 0 mm
21:59 -1.3 °C -5.6 °C 1015.8 hPa NNE 1.6 km/h 8 km/h 73% 0 mm
22:04 -1.4 °C -5.8 °C 1015.8 hPa North 3.2 km/h 8 km/h 72% 0 mm
22:09 -1.4 °C -5.8 °C 1015.5 hPa Calm   8 km/h 72% 0 mm
22:14 -1.4 °C -5.8 °C 1015.5 hPa North 3.2 km/h 11.3 km/h 72% 0 mm
22:19 -1.4 °C -6.4 °C 1015.8 hPa North 4.8 km/h 11.3 km/h 69% 0 mm
22:24 -1.4 °C -6.8 °C 1015.8 hPa NNW 6.4 km/h 24.1 km/h 67% 0 mm
22:29 -1.5 °C -6.8 °C 1015.8 hPa North 8 km/h 24.1 km/h 67% 0 mm
22:34 -1.6 °C -6.7 °C 1015.5 hPa North 6.4 km/h 22.5 km/h 68% 0 mm
22:39 -1.7 °C -6.8 °C 1015.5 hPa NNE 6.4 km/h 17.7 km/h 68% 0 mm
22:44 -1.8 °C -6.9 °C 1015.8 hPa NNE 8 km/h 17.7 km/h 68% 0 mm
22:49 -1.9 °C -7.2 °C 1015.5 hPa NNE 6.4 km/h 25.7 km/h 67% 0 mm
22:54 -2 °C -7.5 °C 1015.5 hPa North 4.8 km/h 25.7 km/h 66% 0 mm
22:59 -2.1 °C -8 °C 1015.5 hPa NNE 8 km/h 24.1 km/h 64% 0 mm
23:04 -2.3 °C -8.2 °C 1015.5 hPa NNE 6.4 km/h 24.1 km/h 64% 0 mm
23:09 -2.4 °C -8.3 °C 1015.5 hPa NNE 8 km/h 20.9 km/h 64% 0 mm
23:14 -2.5 °C -8.6 °C 1015.5 hPa NNE 6.4 km/h 20.9 km/h 63% 0 mm
23:19 -2.6 °C -8.7 °C 1015.5 hPa NNE 3.2 km/h 25.7 km/h 63% 0 mm
23:24 -2.7 °C -9 °C 1015.5 hPa North 4.8 km/h 25.7 km/h 62% 0 mm
23:29 -2.8 °C -9.1 °C 1015.5 hPa North 4.8 km/h 16.1 km/h 62% 0 mm
23:34 -2.9 °C -9.4 °C 1015.5 hPa North 4.8 km/h 16.1 km/h 61% 0 mm
23:39 -3 °C -9.4 °C 1015.5 hPa North 3.2 km/h 17.7 km/h 61% 0 mm
23:44 -3.1 °C -9.3 °C 1015.1 hPa North 3.2 km/h 17.7 km/h 62% 0 mm
23:49 -3.2 °C -9.7 °C 1015.1 hPa North 6.4 km/h 24.1 km/h 61% 0 mm
23:54 -3.3 °C -9.5 °C 1015.1 hPa North 1.6 km/h 24.1 km/h 62% 0 mm
23:59 -3.4 °C -9.5 °C 1015.1 hPa North 1.6 km/h 19.3 km/h 63% 0 mm
Westford Weather
Compliments of Weather Underground

 
 
Current Radar Loop:

Copyright © WestfordWeather.net 2007-2014. All rights reserved.